GW5126 Weather Reports


time (UTC)temp
C
wind
direction
speed
KPH
gust
KPH
rain 1hr
cm
rain 24hr
cm
rain mn
cm
humidity
%
barometer
mb
20260510142725 18 158 4.8 4.8 0.00 0.00 0.00 69 1014.6
20260510142222 18 73 0.0 1.6 0.00 0.00 0.00 72 1014.6
20260510141719 18 181 0.0 1.6 0.00 0.00 0.00 69 1014.6
20260510141218 18 145 1.6 4.8 0.00 0.00 0.00 71 1014.6
20260510140713 18 164 3.2 6.4 0.00 0.00 0.00 71 1014.6
20260510140208 18 57 3.2 4.8 0.00 0.00 0.00 71 1014.4
20260510135703 18 187 0.0 3.2 0.00 0.00 0.00 71 1014.3
20260510135159 17 91 4.8 4.8 0.00 0.00 0.00 73 1014.3
20260510134656 17 127 0.0 3.2 0.00 0.00 0.00 74 1014.4
20260510134153 16 69 0.0 1.6 0.00 0.00 0.00 77 1014.5
20260510133649 16 41 1.6 1.6 0.00 0.00 0.00 78 1014.2
20260510133145 16 16 0.0 1.6 0.00 0.00 0.00 80 1014.2
20260510132641 16 10 1.6 1.6 0.00 0.00 0.00 81 1014.0
20260510132139 16 13 0.0 1.6 0.00 0.00 0.00 84 1014.2
20260510131636 16 12 0.0 0.0 0.00 0.00 0.00 86 1014.2
20260510131134 16 12 0.0 0.0 0.00 0.00 0.00 90 1014.3
20260510130630 15 13 0.0 0.0 0.00 0.00 0.00 93 1014.0
20260510130127 15 13 0.0 0.0 0.00 0.00 0.00 93 1014.0
20260510125623 14 13 0.0 0.0 0.00 0.00 0.00 94 1014.1
20260510125120 13 12 0.0 0.0 0.00 0.00 0.00 94 1014.0
20260510124617 13 12 0.0 1.6 0.00 0.00 0.00 94 1014.0
20260510124114 13 0 1.6 1.6 0.00 0.00 0.00 95 1013.9
20260510123609 12 345 0.0 0.0 0.00 0.00 0.00 95 1014.2
20260510123105 12 344 0.0 1.6 0.00 0.00 0.00 94 1013.9
20260510122601 12 358 0.0 0.0 0.00 0.00 0.00 95 1013.7
20260510122057 12 358 0.0 0.0 0.00 0.00 0.00 95 1014.0
20260510121554 11 358 0.0 1.6 0.00 0.00 0.00 95 1013.7
20260510121052 11 309 0.0 0.0 0.00 0.00 0.00 95 1013.7
20260510120549 11 312 1.6 1.6 0.00 0.00 0.00 94 1013.4
20260510120044 11 314 0.0 0.0 0.00 0.00 0.00 95 1013.6
20260510115541 11 313 0.0 0.0 0.00 0.00 0.00 95 1013.9
20260510115038 11 313 0.0 0.0 0.00 0.00 0.00 95 1013.7
20260510114533 10 313 0.0 0.0 0.00 0.00 0.00 95 1013.6
20260510114030 10 313 0.0 0.0 0.00 0.00 0.00 95 1013.3
20260510113525 10 313 0.0 0.0 0.00 0.00 0.00 95 1013.1
20260510113023 10 313 0.0 1.6 0.00 0.00 0.00 95 1013.1
20260510112520 10 313 0.0 0.0 0.00 0.00 0.00 95 1012.8
20260510112016 10 313 0.0 0.0 0.00 0.00 0.00 95 1012.9
20260510111513 10 313 0.0 0.0 0.00 0.00 0.00 95 1012.6
20260510111009 9 313 0.0 0.0 0.00 0.00 0.00 95 1012.4
20260510110505 8 313 0.0 1.6 0.00 0.00 0.00 95 1012.5
20260510110002 8 313 0.0 0.0 0.00 0.00 0.00 95 1012.5
20260510105456 8 313 0.0 0.0 0.00 0.00 0.00 95 1012.4
20260510104952 8 313 0.0 0.0 0.00 0.00 0.00 95 1012.2
20260510104449 8 313 0.0 0.0 0.00 0.00 0.00 95 1012.2
20260510103945 8 313 0.0 0.0 0.00 0.00 0.00 95 1012.2
20260510103443 8 313 0.0 0.0 0.00 0.00 0.00 95 1012.1
20260510102938 8 313 0.0 0.0 0.00 0.00 0.00 95 1012.1
20260510102434 8 313 0.0 0.0 0.00 0.00 0.00 95 1011.9
20260510101931 8 313 0.0 0.0 0.00 0.00 0.00 95 1011.9
20260510101429 8 313 0.0 0.0 0.00 0.00 0.00 95 1011.8
20260510100927 8 313 0.0 0.0 0.00 0.00 0.00 95 1011.7
20260510100423 8 313 0.0 0.0 0.00 0.00 0.00 95 1011.4
20260510095919 8 313 0.0 0.0 0.00 0.00 0.00 94 1011.6
20260510095415 8 313 0.0 0.0 0.00 0.00 0.00 95 1011.3
20260510094914 8 313 0.0 0.0 0.00 0.00 0.00 94 1011.4
20260510094409 8 313 0.0 0.0 0.00 0.00 0.00 94 1011.3
20260510093906 8 313 0.0 1.6 0.00 0.00 0.00 94 1011.3
20260510093401 8 313 0.0 0.0 0.00 0.00 0.00 94 1011.1
20260510092858 8 313 0.0 0.0 0.00 0.00 0.00 94 1011.0
20260510092355 8 313 0.0 0.0 0.00 0.00 0.00 94 1011.1
20260510091850 8 313 0.0 0.0 0.00 0.00 0.00 94 1011.2
20260510091347 8 313 0.0 0.0 0.00 0.00 0.00 94 1011.3
20260510090843 8 313 0.0 0.0 0.00 0.00 0.00 94 1011.1
20260510090340 8 313 0.0 0.0 0.00 0.00 0.00 94 1011.1
20260510085835 8 313 0.0 0.0 0.00 0.00 0.00 94 1010.9
20260510085330 8 313 0.0 0.0 0.00 0.00 0.00 94 1011.0
20260510084826 8 313 0.0 0.0 0.00 0.00 0.00 94 1011.0
20260510084324 8 313 0.0 0.0 0.00 0.00 0.00 94 1010.8
20260510083820 8 313 0.0 0.0 0.00 0.00 0.00 94 1011.0
20260510083317 8 313 0.0 0.0 0.00 0.00 0.00 94 1011.1
20260510082812 8 313 0.0 0.0 0.00 0.00 0.00 94 1010.9
20260510082310 8 313 0.0 0.0 0.00 0.00 0.00 94 1011.0
20260510081809 8 313 0.0 0.0 0.00 0.00 0.00 94 1010.8
20260510081305 8 313 0.0 0.0 0.00 0.00 0.00 94 1010.9
20260510080801 8 313 0.0 0.0 0.00 0.00 0.00 94 1010.8
20260510080301 8 313 0.0 0.0 0.00 0.00 0.00 94 1010.9
20260510075758 8 313 0.0 0.0 0.00 0.00 0.00 94 1010.9
20260510075256 8 313 0.0 0.0 0.00 0.00 0.00 94 1010.6
20260510074753 8 313 0.0 0.0 0.00 0.00 0.00 94 1010.7
20260510074249 9 313 0.0 0.0 0.00 0.00 0.00 94 1010.6
20260510073745 9 313 0.0 0.0 0.00 0.00 0.00 94 1010.6
20260510073241 9 313 0.0 0.0 0.00 0.00 0.00 94 1010.6
20260510072737 9 313 0.0 1.6 0.00 0.00 0.00 94 1010.7
20260510072234 9 313 0.0 1.6 0.00 0.00 0.00 94 1010.7
20260510071731 9 312 0.0 0.0 0.00 0.00 0.00 94 1010.4
20260510071227 9 312 0.0 0.0 0.00 0.00 0.00 94 1010.6
20260510070726 9 312 0.0 0.0 0.00 0.00 0.00 94 1010.7
20260510070223 9 312 0.0 0.0 0.00 0.00 0.00 94 1010.7
20260510065717 9 312 0.0 0.0 0.00 0.00 0.00 94 1010.6
20260510065214 9 312 0.0 0.0 0.00 0.00 0.00 94 1010.6
20260510064710 9 312 0.0 0.0 0.00 0.00 0.00 94 1010.6
20260510064208 9 312 0.0 0.0 0.00 0.00 0.00 94 1010.6
20260510063705 9 312 0.0 0.0 0.00 0.00 0.00 94 1010.6
20260510063201 9 312 0.0 0.0 0.00 0.00 0.00 94 1010.6
20260510062657 9 313 0.0 0.0 0.00 0.00 0.00 94 1010.7
20260510062153 9 313 0.0 0.0 0.00 0.00 0.00 93 1010.5
20260510061648 10 313 0.0 0.0 0.00 0.00 0.00 93 1010.5
20260510061146 10 312 0.0 0.0 0.00 0.00 0.00 93 1010.8
20260510060642 10 313 0.0 0.0 0.00 0.00 0.00 93 1010.6
20260510060139 10 313 0.0 0.0 0.00 0.00 0.00 93 1010.6
20260510055635 10 312 0.0 0.0 0.00 0.00 0.00 93 1010.7
20260510055134 10 312 0.0 0.0 0.00 0.00 0.00 93 1010.9
20260510054629 10 312 0.0 0.0 0.00 0.00 0.00 93 1010.8
20260510054125 10 312 0.0 0.0 0.00 0.00 0.00 93 1010.8
20260510053624 10 312 0.0 0.0 0.00 0.00 0.00 93 1010.7
20260510053121 10 312 0.0 0.0 0.00 0.00 0.00 93 1011.0
20260510052617 10 312 0.0 0.0 0.00 0.00 0.00 93 1010.8
20260510052114 10 312 0.0 0.0 0.00 0.00 0.00 93 1010.6
20260510051609 10 312 0.0 0.0 0.00 0.00 0.00 93 1010.9
20260510051106 10 312 0.0 0.0 0.00 0.00 0.00 93 1010.9
20260510050603 10 312 0.0 0.0 0.00 0.00 0.00 93 1010.7
20260510050100 10 312 0.0 0.0 0.00 0.00 0.00 93 1010.8
20260510045557 10 312 0.0 0.0 0.00 0.00 0.00 93 1010.8
20260510045053 10 312 0.0 0.0 0.00 0.00 0.00 93 1010.8
20260510044550 10 312 0.0 0.0 0.00 0.00 0.00 93 1010.8
20260510044048 10 312 0.0 0.0 0.00 0.00 0.00 93 1010.7
20260510043543 10 312 0.0 0.0 0.00 0.00 0.00 93 1010.8
20260510043039 10 312 0.0 0.0 0.00 0.00 0.00 92 1010.5
20260510042538 10 312 0.0 0.0 0.00 0.00 0.00 93 1010.8
20260510042033 10 312 0.0 0.0 0.00 0.00 0.00 92 1010.6
20260510041531 10 312 0.0 0.0 0.00 0.00 0.00 92 1010.6
20260510041029 10 312 0.0 0.0 0.00 0.00 0.00 92 1010.7
20260510040525 10 312 0.0 0.0 0.00 0.00 0.00 92 1010.6
20260510040021 10 312 0.0 0.0 0.00 0.00 0.00 92 1010.6
20260510035517 10 312 0.0 0.0 0.00 0.00 0.00 92 1010.6
20260510035016 10 313 0.0 0.0 0.00 0.00 0.00 92 1010.6
20260510034516 11 312 0.0 0.0 0.00 0.00 0.00 92 1010.5
20260510034012 11 312 0.0 0.0 0.00 0.00 0.00 92 1010.4
20260510033508 11 312 0.0 0.0 0.00 0.00 0.00 92 1010.4
20260510033007 11 312 0.0 0.0 0.00 0.00 0.00 92 1010.4
20260510032503 11 312 0.0 0.0 0.00 0.00 0.00 92 1010.2
20260510032003 11 312 0.0 0.0 0.00 0.00 0.00 92 1010.3
20260510031458 11 312 0.0 0.0 0.00 0.00 0.00 92 1010.2
20260510030954 11 312 0.0 0.0 0.00 0.00 0.00 91 1010.2
20260510030450 11 312 0.0 0.0 0.00 0.00 0.00 91 1010.3
20260510025947 11 313 1.6 1.6 0.00 0.00 0.00 91 1010.2
20260510025445 11 303 1.6 1.6 0.00 0.00 0.00 91 1010.2
20260510024942 11 299 0.0 0.0 0.00 0.00 0.00 91 1009.9
20260510024438 11 299 0.0 1.6 0.00 0.00 0.00 91 1009.9
20260510023934 11 332 0.0 0.0 0.00 0.00 0.00 91 1010.0
20260510023431 11 332 0.0 0.0 0.00 0.00 0.00 91 1010.0
20260510022928 11 332 0.0 0.0 0.00 0.00 0.00 90 1010.1
20260510022427 11 332 0.0 0.0 0.00 0.00 0.00 90 1010.2
20260510021926 11 332 0.0 0.0 0.00 0.00 0.00 90 1009.8
20260510021424 12 332 0.0 0.0 0.00 0.00 0.00 89 1010.0
20260510020920 12 332 0.0 0.0 0.00 0.00 0.00 89 1009.6
20260510020415 12 332 0.0 0.0 0.00 0.00 0.00 89 1009.6
20260510015911 12 332 0.0 0.0 0.00 0.00 0.00 89 1009.7
20260510015407 12 332 0.0 0.0 0.00 0.00 0.00 88 1009.6
20260510014908 12 333 0.0 0.0 0.00 0.00 0.00 88 1009.4
20260510014406 12 333 0.0 0.0 0.00 0.00 0.00 88 1009.3
20260510013902 12 333 0.0 0.0 0.00 0.00 0.00 88 1009.1
20260510013357 12 333 0.0 0.0 0.00 0.00 0.00 87 1009.1
20260510012852 12 333 0.0 0.0 0.00 0.00 0.00 86 1009.2
20260510012347 13 333 0.0 0.0 0.00 0.00 0.00 86 1009.0
20260510011842 13 333 0.0 0.0 0.00 0.00 0.00 86 1009.0
20260510011337 13 332 0.0 0.0 0.00 0.00 0.00 85 1008.9
20260510010834 13 332 0.0 0.0 0.00 0.00 0.00 84 1009.0
20260510010332 13 332 0.0 0.0 0.00 0.00 0.00 84 1009.0
20260510005828 14 333 1.6 1.6 0.00 0.00 0.00 83 1009.0
20260510005324 14 332 0.0 1.6 0.00 0.00 0.00 82 1008.8
20260510004822 14 332 0.0 0.0 0.00 0.00 0.00 80 1008.9
20260510004320 15 332 0.0 0.0 0.00 0.00 0.00 79 1008.9
20260510003817 15 332 0.0 0.0 0.00 0.00 0.00 78 1008.8
20260510003314 15 333 0.0 1.6 0.00 0.00 0.00 77 1008.8
20260510002813 16 326 1.6 3.2 0.00 0.00 0.00 74 1008.4
20260510002310 16 166 0.0 0.0 0.00 0.00 0.00 71 1008.1
20260510001806 16 166 0.0 0.0 0.00 0.00 0.00 70 1008.3
20260510001305 17 166 0.0 0.0 0.00 0.00 0.00 69 1008.1
20260510000800 17 166 0.0 0.0 0.00 0.00 0.00 68 1008.1
20260510000258 17 167 0.0 0.0 0.00 0.00 0.00 67 1008.0
20260509235755 18 129 0.0 1.6 0.00 0.00 0.00 66 1007.7
20260509235251 18 222 3.2 3.2 0.00 0.00 0.00 64 1008.0
20260509234747 18 4 0.0 1.6 0.00 0.00 0.00 63 1008.0
20260509234244 18 310 0.0 1.6 0.00 0.00 0.00 63 1007.9
20260509233743 18 261 3.2 3.2 0.00 0.00 0.00 63 1007.9
20260509233240 18 157 3.2 3.2 0.00 0.00 0.00 62 1007.9
20260509232736 18 148 0.0 3.2 0.00 0.00 0.00 63 1008.1
20260509232233 19 268 0.0 3.2 0.00 0.00 0.00 63 1008.1
20260509231729 19 146 1.6 3.2 0.00 0.00 0.00 62 1008.0
20260509231227 19 31 3.2 4.8 0.00 0.00 0.00 62 1008.2
20260509230724 19 312 0.0 4.8 0.00 0.00 0.00 59 1008.0
20260509230221 19 263 0.0 1.6 0.00 0.00 0.00 61 1007.9
20260509225716 19 353 3.2 4.8 0.00 0.00 0.00 58 1008.0
20260509225212 20 87 4.8 9.7 0.00 0.00 0.00 58 1008.1
20260509224708 20 216 0.0 6.4 0.00 0.00 0.00 58 1008.3
20260509224205 20 166 0.0 6.4 0.00 0.00 0.00 57 1008.1
20260509223702 20 134 1.6 6.4 0.00 0.00 0.00 57 1008.2
20260509223159 20 96 1.6 6.4 0.00 0.00 0.00 56 1008.1
20260509222656 21 253 1.6 9.7 0.00 0.00 0.00 55 1008.5
20260509222152 20 246 0.0 11.3 0.00 0.00 0.00 56 1008.4
20260509221647 21 149 3.2 6.4 0.00 0.00 0.00 58 1008.4
20260509221143 21 167 4.8 6.4 0.00 0.00 0.00 55 1008.8
20260509220639 21 262 1.6 12.9 0.00 0.00 0.00 55 1008.7
20260509220135 21 269 1.6 3.2 0.00 0.00 0.00 55 1008.5
20260509215632 21 340 3.2 9.7 0.00 0.00 0.00 55 1008.4
20260509215128 21 169 4.8 9.7 0.00 0.00 0.00 55 1008.7
20260509214626 20 322 0.0 3.2 0.00 0.00 0.00 58 1008.7
20260509214122 20 218 4.8 9.7 0.00 0.00 0.00 58 1008.8
20260509213619 21 166 6.4 9.7 0.00 0.00 0.00 56 1008.5
20260509213115 21 151 3.2 9.7 0.00 0.00 0.00 56 1008.5
20260509212613 21 127 0.0 6.4 0.00 0.00 0.00 56 1008.8
20260509212110 21 186 3.2 6.4 0.00 0.00 0.00 55 1008.7
20260509211605 21 209 6.4 9.7 0.00 0.00 0.00 56 1008.5
20260509211102 21 304 3.2 6.4 0.00 0.00 0.00 53 1008.7
20260509210559 21 151 3.2 6.4 0.00 0.00 0.00 52 1008.7
20260509210056 21 147 3.2 6.4 0.00 0.00 0.00 56 1008.5
20260509205550 20 181 4.8 11.3 0.00 0.00 0.00 55 1008.5
20260509205045 20 195 1.6 6.4 0.00 0.00 0.00 55 1008.5
20260509204542 20 327 3.2 14.5 0.00 0.00 0.00 54 1008.5
20260509204038 20 201 3.2 9.7 0.00 0.00 0.00 55 1008.8
20260509203534 20 252 1.6 9.7 0.00 0.00 0.00 55 1008.7
20260509203033 20 353 1.6 9.7 0.00 0.00 0.00 55 1008.9
20260509202532 21 209 4.8 6.4 0.00 0.00 0.00 54 1008.7
20260509202028 20 72 0.0 6.4 0.00 0.00 0.00 55 1008.8
20260509201523 20 262 1.6 6.4 0.00 0.00 0.00 51 1008.9
20260509201021 20 246 3.2 6.4 0.00 0.00 0.00 49 1009.0
20260509200516 21 210 3.2 6.4 0.00 0.00 0.00 53 1008.9
20260509200013 20 140 1.6 6.4 0.00 0.00 0.00 52 1009.1
20260509195508 20 238 4.8 9.7 0.00 0.00 0.00 52 1009.1
20260509195007 20 55 3.2 9.7 0.00 0.00 0.00 52 1009.1
20260509194503 20 132 3.2 9.7 0.00 0.00 0.00 52 1009.1
20260509194000 20 237 6.4 11.3 0.00 0.00 0.00 53 1009.2
20260509193500 20 296 3.2 16.1 0.00 0.00 0.00 52 1009.5
20260509192956 20 163 4.8 6.4 0.00 0.00 0.00 56 1009.4
20260509192453 20 86 3.2 4.8 0.00 0.00 0.00 51 1009.3
20260509191948 20 168 6.4 12.9 0.00 0.00 0.00 54 1009.2
20260509191443 20 193 3.2 11.3 0.00 0.00 0.00 52 1009.4
20260509190940 20 233 3.2 9.7 0.00 0.00 0.00 53 1009.4
20260509190437 20 181 6.4 12.9 0.00 0.00 0.00 53 1009.4
20260509185935 20 180 3.2 6.4 0.00 0.00 0.00 54 1009.3
20260509185432 20 164 3.2 3.2 0.00 0.00 0.00 57 1009.4
20260509184928 20 355 1.6 3.2 0.00 0.00 0.00 55 1009.6
20260509184427 19 175 0.0 4.8 0.00 0.00 0.00 60 1009.4
20260509183923 18 146 6.4 11.3 0.00 0.00 0.00 58 1009.5
20260509183423 18 189 6.4 6.4 0.00 0.00 0.00 58 1009.6
20260509182920 18 181 6.4 9.7 0.00 0.00 0.00 56 1009.7
20260509182416 18 179 6.4 6.4 0.00 0.00 0.00 58 1009.8
20260509181914 18 160 8.0 12.9 0.00 0.00 0.00 57 1009.7
20260509181411 18 279 0.0 9.7 0.00 0.00 0.00 55 1009.6
20260509180908 18 277 1.6 3.2 0.00 0.00 0.00 59 1009.7
20260509180404 18 156 0.0 4.8 0.00 0.00 0.00 58 1009.5
20260509175901 17 215 1.6 3.2 0.00 0.00 0.00 63 1009.7
20260509175357 17 210 1.6 4.8 0.00 0.00 0.00 64 1009.8
20260509174853 17 90 1.6 3.2 0.00 0.00 0.00 64 1009.6
20260509174350 17 132 1.6 9.7 0.00 0.00 0.00 64 1009.7
20260509173845 17 249 3.2 6.4 0.00 0.00 0.00 66 1009.6
20260509173340 17 160 3.2 11.3 0.00 0.00 0.00 66 1009.4
20260509172837 17 175 3.2 6.4 0.00 0.00 0.00 69 1009.6
20260509172334 16 153 1.6 6.4 0.00 0.00 0.00 73 1009.5
20260509171830 16 79 3.2 6.4 0.00 0.00 0.00 71 1009.7
20260509171325 16 125 1.6 11.3 0.00 0.00 0.00 72 1009.5
20260509170822 16 167 6.4 9.7 0.00 0.00 0.00 72 1009.4
20260509170318 16 142 4.8 6.4 0.00 0.00 0.00 75 1009.3
20260509165818 16 289 1.6 6.4 0.00 0.00 0.00 75 1009.4
20260509165313 16 165 3.2 4.8 0.00 0.00 0.00 79 1009.5
20260509164809 16 207 6.4 11.3 0.00 0.00 0.00 77 1009.5
20260509164305 16 304 3.2 9.7 0.00 0.00 0.00 78 1009.7
20260509163802 15 65 1.6 4.8 0.00 0.00 0.00 80 1009.7
20260509163259 15 131 4.8 12.9 0.00 0.00 0.00 77 1009.6
20260509162758 15 155 0.0 3.2 0.00 0.00 0.00 80 1009.7
20260509162256 15 263 3.2 3.2 0.00 0.00 0.00 81 1009.7
20260509161753 14 314 0.0 1.6 0.00 0.00 0.00 83 1009.9
20260509161249 14 222 0.0 1.6 0.00 0.00 0.00 83 1009.8
20260509160744 13 148 0.0 1.6 0.00 0.00 0.00 84 1009.5
20260509160241 13 105 0.0 0.0 0.00 0.00 0.00 84 1009.6
20260509155736 13 151 1.6 1.6 0.00 0.00 0.00 84 1009.7
20260509155233 13 349 1.6 4.8 0.00 0.00 0.00 83 1009.7
20260509154729 14 318 3.2 4.8 0.00 0.00 0.00 83 1009.5
20260509154226 14 180 0.0 3.2 0.00 0.00 0.00 84 1009.5
20260509153724 14 0 0.0 3.2 0.00 0.00 0.00 85 1009.5
20260509153219 14 189 3.2 4.8 0.00 0.00 0.00 85 1009.4
20260509152715 13 158 0.0 3.2 0.00 0.00 0.00 84 1009.5
20260509152213 13 129 1.6 3.2 0.00 0.00 0.00 85 1009.6
20260509151709 13 217 1.6 1.6 0.00 0.00 0.00 86 1009.7
20260509151206 13 202 0.0 3.2 0.00 0.00 0.00 85 1009.4
20260509150704 13 170 4.8 6.4 0.00 0.00 0.00 86 1009.5
20260509150202 13 139 0.0 3.2 0.00 0.00 0.00 86 1009.5
20260509145658 13 133 3.2 4.8 0.00 0.00 0.00 86 1009.6
20260509145154 13 172 3.2 3.2 0.00 0.00 0.00 87 1009.7
20260509144650 13 136 4.8 4.8 0.00 0.00 0.00 88 1009.5
20260509144147 13 128 6.4 6.4 0.00 0.00 0.00 88 1009.6
20260509143644 13 156 4.8 4.8 0.00 0.00 0.00 90 1009.9
20260509143142 12 133 3.2 6.4 0.00 0.00 0.00 90 1009.7